Location: Dugenta
(41.1333°N, 14.4500°E)
Time: 20:44:58
(UTC+00:00)

Cosmos 1844 - Pass Details

Date: 03 March 2021
Orbit: 822 x 868 km, 70.9° (Epoch: 18 April)

Event Time Altitude Azimuth Distance (km) Brightness Sun altitude
Rises 18:35:32 0° 337° (NNW) 3,454 7.3 -19.6°
Reaches altitude 10° 18:38:02 10° 338° (NNW) 2,509 6.5 -20.1°
Maximum altitude 18:43:49 80° 65° (ENE) 874 3.6 -21.1°
Enters shadow 18:46:44 30° 150° (SSE) 1,472 4.6 -21.7°
